STARLINK-31724 (59554 NORAD) Tracking and Keplerian Element Data

This shows tracking and keplerian element data for the satellite.

Feedback or suggestion? Click here.




ElementValue
Catalog59554
NameSTARLINK-31724
Epoch Orbit780
Epoch Day159.90278134
Epoch Year2024
RAAN28.1611
Inclination43.0016
Eccentricity0.0001794
Argument of Perigee266.0803
Mean Anonmoly93.9849
Mean Motion15.40700853
Decay Rate6.553E-05
L11 59554U 24074W 24159.90278134 .00006553 00000+0 16400-3 0 9992
L22 59554 43.0016 28.1611 0001794 266.0803 93.9849 15.40700853 7809



Live tracking and technical data element details for STARLINK-31724 (NORAD 59554). STARLINK-31724 can be tracked NOW for your location showing map with azimuth and elevation plus other details from your city location.







IsCatalogInMostPopularTable: catalog: 59554, numindb: 16
Update: records affected: 1



GetName: 59554 STARLINK-31724

Hit Count: updated at: Fri, 14 Jun 2024 18:20:49 GMT